When you browse on this site, cookies collect data to enhance your experience and personalize the content and advertising you see.
Visit our Privacy Policy to learn more. By continuing to use the site, you agree to this use of cookies and data.
  • In Lithuania
  • List of Countries
  • For 7 days
  • Water Temperature
  • Satellite Maps
  • Weather Map
  • Weather Widgets
  • user-avatar
    Login

    Hourly Weather Worcester

    Today, 21 April, Sunday

    Time Temperature Precipitation Wind Pressure Humidity
    00:00 +13°C° 0 mm 2 mps 765 mmHg 89%
    01:00 +12°C° 0 mm 1 mps 765 mmHg 89%
    02:00 +12°C° 0 mm 1 mps 764 mmHg 89%
    03:00 +11°C° 0 mm 1 mps 764 mmHg 90%
    04:00 +11°C° 0 mm 1 mps 763 mmHg 89%
    05:00 +11°C° 0 mm 1 mps 763 mmHg 87%
    06:00 +11°C° 0 mm 1 mps 763 mmHg 86%
    07:00 +13°C° 0 mm 1 mps 762 mmHg 80%
    08:00 +15°C° 0 mm 1 mps 762 mmHg 74%
    09:00 +17°C° 0 mm 2 mps 762 mmHg 68%
    10:00 +18°C° 0 mm 2 mps 761 mmHg 64%
    11:00 +19°C° 0 mm 2 mps 761 mmHg 60%
    12:00 +20°C° 0 mm 2 mps 760 mmHg 56%
    13:00 +21°C° 0 mm 2 mps 760 mmHg 55%
    14:00 +21°C° 0 mm 2 mps 759 mmHg 54%
    15:00 +21°C° 0 mm 2 mps 758 mmHg 53%
    16:00 +20°C° 0 mm 2 mps 758 mmHg 58%
    17:00 +19°C° 0 mm 2 mps 758 mmHg 63%
    18:00 +19°C° 0 mm 1 mps 757 mmHg 67%
    19:00 +18°C° 0 mm 1 mps 757 mmHg 69%
    20:00 +15°C° 0 mm 1 mps 757 mmHg 70%
    21:00 +13°C° 0 mm 1 mps 756 mmHg 71%
    22:00 +12°C° 0 mm 1 mps 756 mmHg 75%
    23:00 +12°C° 0 mm 2 mps 756 mmHg 78%

    Tomorrow, 22 April, Monday

    Time Temperature Precipitation Wind Pressure Humidity
    00:00 +10°C° 0 mm 2 mps 755 mmHg 82%
    01:00 +10°C° 0 mm 2 mps 755 mmHg 84%
    02:00 +9°C° 0 mm 2 mps 754 mmHg 87%
    03:00 +9°C° 0 mm 2 mps 753 mmHg 89%
    04:00 +9°C° 0 mm 2 mps 753 mmHg 87%
    05:00 +8°C° 0 mm 2 mps 752 mmHg 84%
    06:00 +8°C° 0 mm 2 mps 752 mmHg 82%
    07:00 +12°C° 0 mm 2 mps 751 mmHg 78%
    08:00 +14°C° 0 mm 2 mps 751 mmHg 75%
    09:00 +16°C° 0 mm 3 mps 751 mmHg 72%
    10:00 +18°C° 0.1 mm 4 mps 750 mmHg 69%
    11:00 +19°C° 0.1 mm 4 mps 749 mmHg 66%
    12:00 +21°C° 0.1 mm 5 mps 749 mmHg 63%
    13:00 +21°C° 0.4 mm 5 mps 748 mmHg 64%
    14:00 +21°C° 0.4 mm 5 mps 748 mmHg 65%
    15:00 +21°C° 0.4 mm 5 mps 747 mmHg 66%
    16:00 +20°C° 0.5 mm 4 mps 747 mmHg 71%
    17:00 +19°C° 0.5 mm 4 mps 747 mmHg 76%
    18:00 +18°C° 0.5 mm 4 mps 746 mmHg 82%
    19:00 +16°C° 0.1 mm 3 mps 746 mmHg 85%
    20:00 +14°C° 0.1 mm 3 mps 746 mmHg 89%
    21:00 +13°C° 0.1 mm 3 mps 747 mmHg 93%
    22:00 +13°C° 0 mm 2 mps 746 mmHg 92%
    23:00 +12°C° 0 mm 2 mps 746 mmHg 92%

    Day after tomorrow, 23 April, Tuesday

    Time Temperature Precipitation Wind Pressure Humidity
    00:00 +11°C° 0 mm 1 mps 746 mmHg 92%
    01:00 +10°C° 0 mm 2 mps 746 mmHg 92%
    02:00 +10°C° 0 mm 2 mps 745 mmHg 92%
    03:00 +10°C° 0 mm 2 mps 745 mmHg 92%
    04:00 +10°C° 0 mm 3 mps 745 mmHg 92%
    05:00 +10°C° 0 mm 3 mps 745 mmHg 91%
    06:00 +10°C° 0 mm 3 mps 744 mmHg 90%
    07:00 +12°C° 0 mm 3 mps 744 mmHg 87%
    08:00 +14°C° 0 mm 4 mps 744 mmHg 84%
    09:00 +17°C° 0 mm 4 mps 744 mmHg 80%
    10:00 +17°C° 0 mm 5 mps 744 mmHg 76%
    11:00 +19°C° 0 mm 5 mps 744 mmHg 72%
    12:00 +20°C° 0 mm 6 mps 744 mmHg 68%
    13:00 +20°C° 0.1 mm 6 mps 744 mmHg 68%
    14:00 +20°C° 0.1 mm 6 mps 743 mmHg 69%
    15:00 +20°C° 0.1 mm 5 mps 743 mmHg 69%
    16:00 +19°C° 0.2 mm 5 mps 743 mmHg 73%
    17:00 +19°C° 0.2 mm 5 mps 743 mmHg 77%
    18:00 +18°C° 0.2 mm 4 mps 743 mmHg 80%
    19:00 +15°C° 0 mm 4 mps 743 mmHg 80%
    20:00 +13°C° 0 mm 5 mps 743 mmHg 79%
    21:00 +12°C° 0 mm 5 mps 743 mmHg 79%
    22:00 +11°C° 0 mm 4 mps 743 mmHg 81%
    23:00 +10°C° 0 mm 4 mps 742 mmHg 83%

    24 April, Wednesday

    Time Temperature Precipitation Wind Pressure Humidity
    00:00 +9°C° 0 mm 3 mps 742 mmHg 86%
    01:00 +9°C° 0 mm 3 mps 742 mmHg 89%
    02:00 +9°C° 0 mm 2 mps 741 mmHg 91%
    03:00 +8°C° 0 mm 2 mps 741 mmHg 94%
    04:00 +9°C° 0.8 mm 2 mps 741 mmHg 94%
    05:00 +9°C° 0.8 mm 2 mps 741 mmHg 95%
    06:00 +10°C° 0.8 mm 2 mps 741 mmHg 95%
    07:00 +10°C° 1.2 mm 3 mps 741 mmHg 93%
    08:00 +11°C° 1.2 mm 4 mps 742 mmHg 92%
    09:00 +10°C° 1.2 mm 5 mps 742 mmHg 90%
    10:00 +12°C° 0 mm 5 mps 742 mmHg 82%
    11:00 +13°C° 0 mm 5 mps 742 mmHg 75%
    12:00 +14°C° 0 mm 6 mps 743 mmHg 67%
    13:00 +14°C° 0 mm 6 mps 743 mmHg 65%
    14:00 +14°C° 0 mm 6 mps 742 mmHg 63%
    15:00 +14°C° 0 mm 6 mps 742 mmHg 61%
    16:00 +13°C° 0.1 mm 6 mps 742 mmHg 67%
    17:00 +13°C° 0.1 mm 5 mps 742 mmHg 73%
    18:00 +12°C° 0.1 mm 5 mps 742 mmHg 78%
    19:00 +10°C° 0.1 mm 5 mps 742 mmHg 81%
    20:00 +9°C° 0.1 mm 5 mps 742 mmHg 83%
    21:00 +8°C° 0.1 mm 6 mps 742 mmHg 85%
    22:00 +8°C° 0 mm 6 mps 742 mmHg 85%
    23:00 +8°C° 0 mm 6 mps 741 mmHg 84%

    25 April, Thursday

    Time Temperature Precipitation Wind Pressure Humidity
    00:00 +8°C° 0 mm 6 mps 741 mmHg 84%
    01:00 +8°C° 0.5 mm 6 mps 741 mmHg 87%
    02:00 +8°C° 0.5 mm 5 mps 741 mmHg 91%
    03:00 +8°C° 0.5 mm 5 mps 740 mmHg 94%
    04:00 +8°C° 0.2 mm 4 mps 741 mmHg 94%
    05:00 +8°C° 0.2 mm 4 mps 741 mmHg 94%
    06:00 +8°C° 0.2 mm 3 mps 741 mmHg 94%
    07:00 +8°C° 0.3 mm 5 mps 741 mmHg 90%
    08:00 +9°C° 0.3 mm 6 mps 741 mmHg 86%
    09:00 +9°C° 0.3 mm 7 mps 742 mmHg 82%
    10:00 +10°C° 0.3 mm 7 mps 742 mmHg 78%
    11:00 +11°C° 0.3 mm 8 mps 743 mmHg 74%
    12:00 +11°C° 0.3 mm 8 mps 743 mmHg 70%
    13:00 +11°C° 0.4 mm 8 mps 743 mmHg 70%
    14:00 +11°C° 0.4 mm 8 mps 743 mmHg 70%
    15:00 +11°C° 0.4 mm 8 mps 743 mmHg 70%
    16:00 +11°C° 0.4 mm 7 mps 744 mmHg 75%
    17:00 +10°C° 0.4 mm 6 mps 744 mmHg 79%
    18:00 +9°C° 0.4 mm 6 mps 744 mmHg 84%
    19:00 +8°C° 0.1 mm 5 mps 744 mmHg 86%
    20:00 +7°C° 0.1 mm 5 mps 745 mmHg 89%
    21:00 +6°C° 0.1 mm 5 mps 745 mmHg 92%
    22:00 +6°C° 0 mm 5 mps 745 mmHg 92%
    23:00 +6°C° 0 mm 5 mps 745 mmHg 93%

    26 April, Friday

    Time Temperature Precipitation Wind Pressure Humidity
    00:00 +5°C° 0 mm 4 mps 745 mmHg 93%
    01:00 +5°C° 0.9 mm 6 mps 745 mmHg 93%
    02:00 +6°C° 0.9 mm 7 mps 745 mmHg 92%
    03:00 +6°C° 0.9 mm 8 mps 744 mmHg 91%
    04:00 +6°C° 0.1 mm 7 mps 745 mmHg 92%
    05:00 +8°C° 0.1 mm 5 mps 745 mmHg 94%
    06:00 +8°C° 0.1 mm 4 mps 746 mmHg 95%
    07:00 +10°C° 0.1 mm 4 mps 746 mmHg 90%
    08:00 +9°C° 0.1 mm 5 mps 747 mmHg 86%
    09:00 +10°C° 0.1 mm 6 mps 748 mmHg 81%
    10:00 +11°C° 0 mm 6 mps 749 mmHg 75%
    11:00 +14°C° 0 mm 6 mps 750 mmHg 70%
    12:00 +15°C° 0 mm 6 mps 750 mmHg 64%
    13:00 +14°C° 0.3 mm 7 mps 751 mmHg 67%
    14:00 +13°C° 0.3 mm 8 mps 752 mmHg 71%
    15:00 +12°C° 0.3 mm 8 mps 752 mmHg 74%
    16:00 +11°C° 0.1 mm 8 mps 753 mmHg 74%
    17:00 +10°C° 0.1 mm 7 mps 753 mmHg 74%
    18:00 +9°C° 0.1 mm 6 mps 754 mmHg 74%
    19:00 +9°C° 0.1 mm 7 mps 753 mmHg 78%
    20:00 +8°C° 0.1 mm 7 mps 753 mmHg 83%
    21:00 +7°C° 0.1 mm 8 mps 753 mmHg 87%
    22:00 +8°C° 0.2 mm 7 mps 754 mmHg 87%
    23:00 +8°C° 0.2 mm 7 mps 754 mmHg 87%
    Show more